Vorticity
-0 -1 0 3 6 10 13 14 14 13 13 11 9 6 5 6 8 10 12 13 12 10 8 7 6 6 6 5 5 5 6 7 7 7 7 7 7 7 7 6 6 5 6 6 7 8 8 9 10 11 12 13 13 13 13 13 13 12 12 11 10 10 10 11 11 11 11 11 13 16 18 16 13 10 9 11 16 21 24 22 19 14 9 6 4 3
-4 -2 2 6 9 11 13 13 13 12 10 7 5 4 5 7 10 12 13 13 11 8 6 6 6 6 6 5 5 6 8 8 8 8 7 7 6 6 6 6 6 6 6 6 7 8 9 10 11 12 13 13 13 13 13 13 13 13 12 11 10 10 10 11 11 11 11 12 14 16 17 15 12 10 9 13 18 22 24 20 15 10 6 4 3 3
-6 -2 5 8 10 11 10 10 10 8 6 4 4 5 7 10 13 13 13 11 9 7 6 6 6 6 5 5 6 8 10 10 9 8 7 6 6 6 6 6 6 6 6 7 8 8 9 10 11 12 13 13 13 13 13 13 13 13 12 11 10 10 10 11 11 11 11 12 14 15 15 13 11 9 10 15 20 23 22 17 12 7 4 3 3 3
-3 2 7 8 8 8 8 7 6 5 4 4 5 7 11 13 14 14 12 9 6 5 6 6 6 5 5 6 8 10 11 11 10 8 7 6 6 6 6 6 6 6 7 7 8 8 9 10 11 12 13 13 13 13 13 13 13 13 12 11 10 10 10 11 12 12 11 12 13 14 14 11 10 10 12 17 21 22 20 14 9 5 3 3 3 4
3 6 7 6 6 6 7 6 5 4 3 5 7 10 13 14 14 13 10 6 5 4 4 5 5 5 5 7 9 12 13 11 10 8 6 6 5 5 5 6 6 7 7 8 8 9 10 10 11 12 12 13 13 13 13 13 13 13 12 11 10 10 11 11 12 12 12 12 13 13 12 10 9 10 13 18 21 21 18 12 7 4 3 3 4 6
8 8 6 4 5 6 6 6 5 4 4 7 9 11 13 13 12 10 6 4 2 2 3 4 5 5 6 8 11 12 13 11 9 7 6 5 5 5 5 6 6 7 8 8 8 9 10 11 11 12 12 13 13 13 13 13 13 13 12 11 11 11 11 12 12 12 12 12 13 12 11 9 9 11 15 20 21 20 15 9 5 3 3 4 6 7
10 7 4 5 6 7 7 5 4 3 5 7 8 10 11 11 9 7 3 1 0 1 2 3 4 5 7 10 12 13 12 10 8 6 5 4 4 5 5 6 7 7 8 8 8 9 10 11 11 12 12 13 13 13 13 13 13 12 12 11 11 11 11 12 12 12 12 12 12 11 10 9 10 13 18 21 22 18 13 7 4 3 4 6 7 8
8 5 5 7 9 9 7 4 2 3 6 7 7 7 7 7 6 4 2 -0 -1 -0 0 2 4 7 10 12 13 13 12 9 7 6 5 4 5 5 6 6 7 7 8 8 8 9 10 11 11 12 12 12 13 13 13 13 12 12 11 11 11 11 12 12 13 13 12 12 11 10 9 9 11 15 20 23 21 16 10 5 4 4 5 7 8 9
6 6 8 10 10 8 4 1 1 2 6 7 6 5 3 4 4 3 2 0 -0 -0 0 2 5 8 13 14 14 13 11 9 6 5 4 4 5 5 6 6 7 8 8 8 9 9 10 11 11 12 12 12 12 12 12 12 12 12 11 11 11 11 12 12 13 13 12 11 10 9 8 10 13 18 23 24 20 14 7 4 3 4 6 8 9 9
7 9 11 12 10 6 1 -1 -0 2 4 6 6 6 4 3 3 3 2 1 0 1 2 5 7 10 13 15 15 13 10 8 7 5 4 5 5 5 6 6 7 8 8 9 9 10 10 11 11 11 12 12 12 12 12 12 12 12 12 11 12 12 12 13 13 13 12 11 9 8 8 12 16 21 26 23 18 11 5 4 4 6 8 9 9 9
9 12 13 11 8 4 0 -0 -0 1 3 5 6 7 6 5 4 2 1 1 1 3 6 10 11 12 12 14 14 12 9 7 6 5 5 5 5 6 6 7 7 8 8 9 9 10 10 10 11 11 11 12 12 12 11 11 12 12 12 12 12 12 12 13 13 13 12 10 9 8 10 14 20 24 26 22 15 8 4 4 5 7 8 9 9 9
10 12 12 9 4 1 -1 -0 0 1 3 5 6 5 4 3 2 0 -1 1 2 4 7 11 14 15 15 14 12 10 8 6 5 4 5 5 6 6 7 7 8 8 9 9 9 10 10 10 11 11 11 12 12 12 11 11 12 12 12 12 12 12 13 13 13 13 12 10 8 9 12 18 23 25 25 18 11 6 3 4 6 8 9 9 9 9
12 12 10 6 2 -1 -2 -2 -0 1 3 4 4 3 1 0 -1 -2 -1 2 5 7 8 11 14 16 17 15 12 9 6 5 5 4 4 5 6 6 7 8 8 8 8 9 9 10 10 10 11 11 12 12 12 12 11 12 12 12 13 13 13 13 13 14 14 13 11 9 9 10 15 21 24 25 21 14 8 4 4 6 7 9 10 9 9 9
13 11 8 5 2 0 -1 -1 0 1 2 2 2 1 -1 -2 -2 -2 1 5 9 11 12 13 14 14 14 13 11 8 6 5 4 4 5 5 6 6 7 8 8 8 8 8 9 10 10 10 11 11 12 12 12 11 11 12 12 13 13 13 13 13 13 14 13 13 11 9 10 13 18 23 25 23 17 10 6 4 5 7 8 9 10 9 9 9
12 11 8 6 4 2 0 0 1 1 1 1 -0 -1 -3 -2 -1 1 4 8 11 12 14 16 16 15 13 11 9 6 5 4 4 5 5 6 7 7 7 8 8 8 8 9 9 10 10 10 11 11 11 11 11 11 11 12 13 13 14 14 14 13 13 14 13 12 10 10 12 15 21 24 23 19 12 7 5 4 6 8 9 10 10 9 9 9
7 8 7 6 4 2 1 0 0 0 0 -1 -1 -2 -2 -0 2 5 8 11 12 12 14 14 15 15 15 12 9 6 5 4 4 5 6 7 7 7 8 8 8 8 8 9 9 10 9 11 11 11 11 11 11 11 11 12 13 14 14 14 14 14 13 13 13 11 10 11 14 18 23 24 21 15 8 5 4 6 7 9 10 10 10 9 9 9
-1 -0 0 1 1 0 -0 -1 -1 -0 -1 -1 -0 0 1 3 6 8 12 13 13 13 15 14 14 12 9 10 8 7 6 5 5 6 6 7 7 7 8 8 8 8 7 8 9 9 10 10 11 11 11 11 10 10 11 13 14 15 15 15 14 14 13 13 12 11 10 12 16 20 24 22 17 11 6 4 5 6 8 9 10 10 10 9 9 9
-7 -6 -5 -4 -3 -3 -3 -2 -0 1 1 2 2 4 6 8 10 12 13 13 13 14 15 16 16 13 8 6 6 6 6 6 6 6 7 7 8 8 8 8 8 8 7 8 9 10 10 10 10 10 10 10 10 11 12 13 15 15 16 15 14 13 13 12 11 11 11 13 17 21 24 20 14 8 4 4 6 7 9 10 10 10 10 10 9 9
-2 -2 -2 -2 -1 -1 -0 2 3 4 4 5 6 7 9 11 12 13 13 13 14 14 14 14 14 13 11 6 5 5 6 6 6 6 7 8 8 8 7 7 8 8 8 9 9 10 10 11 10 10 10 10 10 11 13 15 16 16 16 15 14 13 12 12 11 11 12 15 19 22 22 17 11 6 4 5 7 8 10 10 10 10 10 10 10 10
5 6 6 5 5 5 8 8 8 7 8 8 9 10 11 11 11 12 12 13 14 15 15 14 13 11 9 7 6 6 6 6 6 6 7 8 8 8 7 7 7 8 8 9 9 9 10 10 10 10 10 10 11 12 14 16 17 17 16 15 13 13 12 11 11 11 13 16 19 21 20 14 9 5 4 6 7 9 10 10 10 10 10 10 10 9
11 12 12 11 11 11 12 11 11 11 11 11 12 12 11 11 11 11 13 13 14 15 16 16 13 10 8 7 7 6 5 5 6 6 7 8 8 8 7 7 7 8 8 8 9 9 10 10 10 10 10 10 12 13 16 17 18 17 16 14 13 12 11 11 12 12 14 17 19 20 17 12 7 5 5 7 8 10 10 10 10 10 10 10 9 9
14 14 14 14 15 14 13 12 12 13 13 12 11 10 10 10 10 12 13 14 15 15 15 13 11 8 8 7 7 6 5 6 6 6 7 8 8 8 7 7 7 8 8 8 8 9 10 11 10 10 10 11 13 15 17 18 18 17 15 13 12 12 12 12 13 13 15 18 19 19 15 10 6 5 6 7 9 10 10 10 10 10 10 9 9 9
15 15 14 15 15 15 14 13 13 12 11 10 9 8 8 8 10 12 13 13 14 13 13 11 10 9 9 7 6 5 4 5 6 7 7 8 8 7 6 6 7 8 8 8 8 9 10 11 10 10 11 12 14 16 18 19 18 17 14 13 12 12 12 13 14 14 16 18 19 17 13 8 6 5 6 8 9 10 10 10 10 9 9 9 9 8
14 14 14 14 15 14 13 12 11 9 8 7 6 6 6 8 10 12 13 13 14 13 12 11 10 9 7 6 6 5 5 6 6 7 8 8 8 7 6 6 7 8 9 9 9 9 10 10 10 11 12 14 16 18 19 19 18 16 13 12 12 12 13 14 14 15 17 18 18 16 12 8 6 5 6 8 9 10 10 10 10 9 9 9 8 8
12 12 13 13 13 12 11 9 8 6 6 5 5 6 7 10 12 14 16 18 17 16 13 11 10 9 7 6 6 6 6 6 6 7 8 8 8 7 7 7 7 8 8 9 9 10 10 10 11 11 13 16 18 19 20 19 17 15 12 12 12 13 13 14 14 15 17 18 18 15 10 7 6 6 7 9 10 10 10 10 9 9 8 8 8 7
9 10 11 11 10 9 8 6 6 5 4 4 5 6 9 12 14 17 20 20 17 14 11 11 9 7 6 6 6 6 6 6 7 7 8 8 7 7 7 7 7 8 8 9 9 10 11 11 11 12 15 17 19 20 20 18 16 14 12 11 12 13 13 13 13 15 17 18 17 14 10 7 6 6 7 9 10 10 10 9 9 9 8 8 7 7
7 8 9 8 8 6 6 5 4 4 4 5 6 9 11 13 16 18 19 17 13 11 10 9 7 6 6 6 6 6 7 6 7 8 8 8 7 7 7 7 7 8 9 9 10 10 10 10 11 13 16 18 20 20 20 17 15 13 11 11 12 12 12 11 12 14 17 18 17 14 9 6 6 6 8 9 10 10 10 9 9 8 8 7 7 6
5 6 6 6 6 5 4 4 4 4 5 7 9 12 14 16 17 18 17 12 10 10 10 8 6 5 5 5 6 7 7 7 7 8 8 8 8 8 7 7 8 9 9 10 10 11 11 12 13 14 18 19 20 20 19 16 13 12 11 11 12 12 10 9 10 13 17 19 18 14 9 6 6 6 8 9 10 10 10 9 8 8 7 7 6 6
4 5 5 4 4 4 4 4 4 5 7 9 12 14 16 18 18 16 13 10 10 10 9 7 6 5 5 5 6 7 6 7 8 8 7 8 8 8 7 7 8 9 10 9 10 11 14 14 15 17 19 20 20 19 17 15 12 11 11 11 12 11 9 8 9 13 17 19 18 14 9 6 6 7 8 9 10 10 10 9 8 8 7 6 6 5
4 4 4 4 4 4 4 5 6 7 9 12 14 16 17 18 18 16 13 11 10 9 7 6 6 6 6 6 7 7 7 8 8 8 8 8 9 8 7 8 9 10 10 9 9 11 14 16 18 19 20 20 19 17 15 13 11 10 10 11 11 10 8 7 9 13 18 20 18 13 8 6 6 7 8 9 10 10 9 8 8 7 6 6 5 5
3 4 4 4 5 5 6 7 8 10 12 14 15 16 17 18 18 16 14 11 9 8 7 6 6 6 6 7 7 7 8 9 8 8 8 9 9 8 7 8 10 10 10 10 10 10 12 15 18 21 22 21 18 16 13 11 10 10 10 11 10 9 7 7 10 14 19 20 18 13 8 6 6 7 8 9 10 10 9 8 7 7 6 6 5 5
4 4 5 6 6 7 8 10 11 13 14 15 16 16 17 18 17 16 13 10 8 7 6 6 6 6 6 6 6 7 9 9 9 8 9 9 9 9 9 9 10 10 11 12 12 12 12 14 17 19 21 20 18 14 12 10 10 10 10 10 10 9 7 8 11 15 20 20 17 13 8 6 6 7 8 9 9 9 8 8 7 6 6 5 5 5
6 7 8 8 9 10 10 12 13 14 14 15 15 16 17 17 17 15 12 9 7 6 5 6 6 6 6 6 7 8 9 10 9 9 9 9 9 9 9 10 10 10 10 12 14 16 17 17 17 18 20 18 16 13 11 10 9 9 10 10 9 9 8 10 13 17 20 20 16 12 8 6 6 7 8 9 9 9 8 7 7 6 6 5 5 4
10 10 10 11 11 12 12 13 14 14 14 14 15 16 17 17 16 14 11 8 6 5 4 5 6 7 7 7 8 8 10 10 10 10 9 9 9 9 9 10 11 10 10 12 14 16 20 22 21 20 18 16 14 12 10 9 9 9 10 10 10 10 10 12 15 18 21 19 15 11 7 6 7 7 8 9 9 8 8 7 6 6 5 5 5 5
13 13 13 13 13 13 14 14 15 15 14 14 15 16 16 16 14 12 10 8 6 4 4 4 6 6 7 8 9 10 10 11 10 10 10 9 9 9 10 11 11 11 11 12 14 16 20 22 22 20 16 14 12 10 9 9 9 9 10 10 11 11 13 15 18 20 21 18 14 10 7 6 7 8 8 9 8 8 7 7 6 6 5 5 4 4
14 14 14 14 14 14 15 15 15 14 14 14 15 16 16 15 13 11 9 7 6 5 4 4 5 6 7 8 9 10 10 10 10 10 10 10 9 10 10 11 11 11 12 13 16 18 21 21 20 18 15 12 10 9 8 8 9 9 10 11 12 13 15 18 20 21 20 17 12 8 6 6 7 8 8 8 8 8 7 6 6 5 5 5 4 4
14 14 14 14 15 15 15 15 15 14 13 14 15 16 15 14 12 10 8 6 5 5 5 5 5 6 7 8 9 10 10 10 10 10 10 10 10 11 11 11 11 12 13 14 17 19 22 21 19 16 13 10 8 8 9 9 9 10 11 12 13 15 17 20 21 21 19 15 10 7 6 6 7 8 8 8 8 7 7 6 6 5 5 5 4 4
15 15 15 15 15 15 15 15 14 14 13 14 15 15 14 13 11 9 7 6 5 5 5 5 6 7 8 9 10 10 11 11 10 10 10 10 11 11 11 11 12 13 15 16 18 19 21 19 17 13 10 8 7 8 9 10 10 11 13 14 16 18 19 20 21 20 17 12 9 6 6 6 7 8 8 8 8 7 6 6 6 5 5 4 4 4
15 15 14 15 15 15 14 14 13 13 14 15 15 14 13 11 9 7 6 6 5 5 5 6 7 8 9 10 11 11 11 11 10 10 10 10 11 11 11 12 12 13 15 18 20 20 20 18 14 11 8 8 7 8 8 10 11 13 14 16 18 20 21 21 20 18 14 10 7 6 6 7 7 8 8 8 8 7 6 6 6 5 5 4 4 4
14 14 14 14 14 14 14 13 13 13 14 15 14 13 11 9 7 6 5 5 5 5 5 6 7 8 10 10 11 11 11 11 11 10 10 11 11 11 12 12 13 14 15 18 20 20 19 16 13 10 8 7 7 8 9 11 13 14 15 17 18 20 21 20 18 15 11 8 6 6 6 7 8 8 8 8 7 7 6 6 6 5 5 4 4 4
12 13 13 13 13 13 13 13 14 14 15 14 13 11 9 8 7 7 6 5 5 5 6 7 8 9 10 11 12 12 11 11 11 11 11 11 11 12 12 13 13 14 16 18 19 18 17 14 11 9 7 6 6 8 10 12 14 16 17 19 20 19 18 18 15 12 9 7 6 6 6 7 8 8 8 8 7 7 6 6 6 5 5 4 4 4
11 11 12 12 12 13 13 13 14 14 13 12 11 9 8 8 8 7 7 6 6 6 7 8 9 10 12 13 13 13 12 11 11 10 11 11 11 12 12 13 14 15 16 17 17 17 15 13 10 8 7 6 6 8 10 13 15 17 19 20 19 18 17 16 13 10 7 6 6 6 7 8 8 8 8 7 7 7 6 6 5 5 5 5 5 5
10 10 10 11 11 12 12 12 13 12 12 10 9 8 8 8 7 7 6 6 6 7 8 9 10 11 11 12 12 13 12 11 11 10 11 11 12 12 13 13 14 15 15 16 16 15 13 11 9 7 6 6 7 8 12 14 16 18 19 19 17 16 14 12 10 8 7 6 6 7 7 8 8 8 7 7 7 6 6 6 5 5 5 5 5 6
9 9 10 10 11 11 11 11 12 11 11 10 9 8 8 7 7 6 5 5 6 7 8 9 10 11 12 12 12 12 11 11 11 11 11 11 12 12 13 13 13 14 15 15 15 14 12 10 8 7 6 6 7 9 13 15 16 17 18 17 16 15 12 8 7 7 6 6 7 7 7 7 7 7 7 7 7 6 6 6 6 5 5 5 6 6
8 8 9 9 10 10 10 11 11 11 10 10 9 8 8 7 6 6 5 6 6 7 9 10 11 11 12 12 12 11 11 10 11 11 11 12 13 13 13 13 13 13 14 14 14 13 12 10 8 7 6 6 8 10 13 15 16 17 16 15 14 13 11 9 7 7 6 7 7 7 7 7 7 7 7 7 7 6 6 6 6 6 6 6 6 7
8 8 8 9 9 10 10 10 10 10 10 9 8 8 7 7 6 6 5 6 7 8 9 10 11 11 12 12 12 11 11 11 11 11 11 12 13 13 13 13 12 12 13 13 13 12 11 10 9 8 7 7 9 12 15 15 16 15 14 13 12 11 10 9 8 7 7 7 7 7 7 7 7 7 7 7 7 6 6 6 6 6 6 6 7 8
8 8 8 9 9 9 9 9 10 10 10 9 8 8 7 7 6 6 6 6 7 8 9 10 10 11 12 12 12 11 11 11 11 11 12 12 12 12 12 12 12 12 12 12 12 11 10 9 8 7 7 8 11 13 15 16 16 15 13 11 10 9 8 8 7 7 7 7 7 7 7 7 7 7 7 7 7 7 6 6 6 6 6 7 8 8
8 8 8 8 8 8 8 9 9 9 10 9 8 8 7 6 6 6 6 7 7 8 9 10 10 11 12 12 12 12 11 11 10 11 11 12 12 12 12 11 11 11 11 12 11 11 10 8 7 7 8 10 12 13 14 15 15 14 12 10 9 8 7 7 7 7 7 7 7 7 7 7 7 7 7 7 7 7 7 6 6 7 7 8 8 9
9 9 8 8 8 8 8 8 9 9 9 9 8 7 6 6 6 6 7 8 8 8 9 10 11 11 12 13 12 12 12 11 11 11 11 12 12 12 12 11 11 10 10 11 11 10 9 8 8 8 9 11 13 14 14 14 13 13 11 10 9 8 7 7 7 7 7 7 7 7 7 7 7 7 7 7 7 7 7 7 7 7 8 8 9 9
9 9 9 8 8 8 8 8 8 8 8 8 8 7 7 6 6 6 7 8 8 8 9 10 10 11 12 12 12 12 12 11 11 11 11 12 12 12 12 11 10 10 10 10 10 10 10 9 8 9 11 13 14 15 14 13 12 11 10 8 8 7 7 7 7 7 7 7 7 7 7 7 7 7 7 7 7 7 7 7 7 8 8 9 9 10
10 9 9 8 8 8 8 8 8 8 8 8 8 7 7 7 7 7 7 8 8 8 9 10 10 11 12 12 12 11 11 10 10 10 11 11 12 12 12 11 11 10 10 10 10 10 10 9 10 12 13 14 16 17 16 13 11 10 8 7 7 7 7 8 8 8 8 7 7 7 7 7 7 7 7 7 7 7 8 8 8 9 9 10 10 10
Height
5729 5729 5727 5726 5726 5726 5726 5726 5727 5727 5727 5727 5728 5728 5728 5728 5728 5728 5728 5728 5728 5728 5728 5728 5728 5728 5728 5727 5727 5726 5725 5724 5723 5722 5721 5721 5720 5720 5719 5718 5717 5716 5715 5713 5712 5711 5710 5708 5707 5706 5705 5704 5703 5702 5702 5701 5700 5699 5698 5698 5697 5696 5696 5695 5694 5694 5693 5692 5692 5691 5691 5691 5690 5690 5690 5689 5689 5689 5689 5689 5688 5689 5689 5689 5690 5690
5726 5725 5723 5722 5723 5723 5723 5723 5723 5724 5724 5724 5725 5725 5725 5726 5725 5725 5726 5726 5726 5726 5726 5726 5726 5725 5725 5725 5724 5723 5722 5721 5720 5719 5718 5717 5717 5717 5716 5716 5714 5713 5712 5711 5709 5708 5707 5706 5705 5704 5703 5702 5701 5701 5700 5699 5698 5697 5696 5696 5695 5695 5694 5693 5693 5692 5692 5691 5691 5690 5690 5689 5689 5689 5688 5688 5688 5688 5688 5687 5688 5688 5688 5688 5689 5689
5723 5721 5719 5719 5719 5720 5720 5720 5720 5721 5721 5721 5721 5722 5722 5722 5722 5722 5722 5722 5723 5723 5723 5723 5723 5722 5722 5722 5721 5720 5719 5718 5716 5716 5715 5715 5714 5714 5713 5713 5712 5711 5709 5708 5707 5706 5704 5703 5702 5701 5701 5700 5699 5698 5697 5697 5696 5695 5695 5694 5693 5692 5692 5692 5691 5691 5690 5690 5689 5689 5688 5688 5688 5687 5687 5687 5687 5687 5687 5686 5687 5687 5687 5687 5688 5688
5719 5717 5716 5715 5716 5716 5717 5717 5717 5717 5718 5718 5718 5719 5719 5719 5720 5720 5720 5720 5720 5720 5720 5720 5720 5720 5719 5719 5718 5717 5716 5715 5714 5713 5712 5711 5711 5711 5710 5710 5709 5708 5706 5705 5704 5703 5702 5701 5700 5699 5698 5698 5697 5696 5696 5695 5694 5693 5693 5692 5691 5691 5690 5690 5689 5689 5689 5688 5688 5687 5687 5687 5686 5686 5686 5686 5686 5686 5686 5686 5686 5686 5686 5686 5687 5687
5716 5714 5712 5712 5713 5713 5713 5714 5714 5714 5715 5715 5716 5716 5716 5716 5716 5717 5717 5717 5717 5717 5717 5717 5717 5716 5716 5716 5715 5714 5713 5712 5711 5710 5709 5709 5708 5708 5707 5707 5706 5705 5704 5703 5701 5701 5699 5699 5698 5697 5696 5696 5695 5694 5693 5693 5692 5691 5691 5690 5690 5689 5688 5688 5688 5687 5687 5687 5686 5686 5686 5686 5685 5685 5685 5685 5685 5685 5685 5685 5685 5685 5685 5686 5686 5686
5712 5711 5709 5709 5709 5710 5710 5710 5711 5711 5711 5712 5712 5713 5713 5713 5714 5714 5714 5714 5714 5714 5714 5714 5714 5713 5713 5712 5711 5711 5710 5709 5708 5707 5706 5706 5705 5705 5705 5704 5703 5702 5701 5700 5699 5698 5697 5696 5696 5695 5694 5693 5692 5692 5691 5691 5690 5689 5689 5688 5687 5687 5687 5686 5686 5686 5686 5685 5685 5685 5684 5684 5684 5683 5683 5683 5683 5683 5684 5684 5684 5684 5684 5685 5685 5685
5708 5707 5706 5706 5706 5706 5706 5707 5707 5708 5708 5709 5709 5710 5710 5711 5711 5711 5711 5711 5711 5711 5711 5711 5711 5710 5710 5709 5708 5707 5707 5706 5705 5704 5704 5703 5702 5702 5701 5701 5701 5700 5699 5698 5696 5696 5695 5694 5693 5692 5692 5691 5690 5690 5689 5688 5688 5687 5686 5686 5686 5685 5685 5685 5684 5684 5684 5684 5683 5683 5683 5682 5682 5682 5682 5682 5682 5682 5682 5683 5683 5683 5683 5684 5684 5684
5704 5703 5703 5703 5703 5703 5703 5703 5704 5704 5705 5706 5706 5706 5707 5707 5708 5708 5708 5708 5708 5708 5708 5707 5707 5707 5706 5706 5705 5704 5704 5703 5702 5701 5701 5700 5700 5699 5699 5698 5698 5697 5696 5695 5694 5693 5692 5691 5691 5690 5690 5689 5688 5687 5687 5686 5686 5685 5685 5684 5684 5683 5683 5683 5682 5682 5682 5682 5682 5681 5681 5681 5681 5681 5681 5681 5681 5681 5681 5681 5682 5682 5682 5682 5682 5682
5700 5699 5699 5699 5700 5700 5700 5700 5701 5701 5702 5702 5702 5703 5704 5704 5705 5705 5706 5705 5705 5705 5705 5704 5704 5704 5703 5703 5702 5701 5701 5700 5699 5699 5698 5697 5697 5696 5696 5696 5695 5694 5693 5692 5691 5691 5690 5689 5688 5688 5687 5686 5686 5685 5685 5684 5684 5683 5683 5682 5682 5681 5681 5681 5681 5681 5681 5680 5680 5680 5680 5680 5679 5679 5679 5679 5679 5680 5680 5680 5681 5681 5681 5681 5681 5681
5696 5696 5696 5696 5696 5696 5697 5697 5697 5697 5698 5699 5699 5700 5700 5701 5701 5702 5702 5702 5702 5702 5702 5701 5701 5701 5700 5700 5699 5698 5698 5697 5696 5696 5695 5694 5694 5693 5693 5692 5692 5691 5691 5690 5689 5688 5687 5686 5686 5686 5685 5684 5684 5683 5682 5682 5681 5681 5681 5680 5680 5680 5679 5679 5679 5679 5679 5679 5678 5678 5678 5678 5678 5678 5678 5678 5678 5679 5679 5679 5680 5680 5680 5680 5680 5680
5693 5692 5692 5692 5693 5693 5694 5694 5694 5694 5695 5696 5696 5696 5697 5698 5698 5698 5699 5699 5699 5699 5699 5698 5698 5697 5697 5696 5696 5695 5695 5694 5693 5693 5692 5692 5691 5691 5690 5690 5689 5689 5688 5687 5686 5685 5685 5684 5684 5683 5683 5682 5681 5681 5680 5680 5679 5679 5678 5678 5678 5677 5677 5677 5677 5677 5677 5677 5677 5676 5676 5676 5676 5676 5676 5676 5677 5677 5678 5678 5678 5678 5679 5679 5679 5679
5689 5689 5689 5689 5689 5690 5690 5690 5690 5691 5691 5692 5692 5693 5694 5694 5695 5696 5695 5695 5696 5696 5696 5695 5694 5694 5694 5693 5693 5692 5691 5691 5690 5689 5689 5689 5688 5688 5687 5687 5686 5686 5685 5684 5683 5683 5682 5682 5681 5681 5680 5680 5679 5679 5678 5678 5677 5677 5676 5676 5676 5676 5675 5675 5675 5675 5675 5675 5675 5675 5675 5675 5675 5675 5675 5675 5676 5676 5676 5677 5677 5677 5677 5677 5678 5678
5686 5686 5686 5686 5686 5686 5687 5687 5687 5687 5688 5689 5689 5689 5690 5691 5691 5692 5692 5692 5692 5692 5692 5692 5691 5691 5691 5691 5690 5689 5688 5687 5687 5686 5686 5686 5685 5685 5685 5684 5684 5683 5682 5681 5681 5680 5680 5679 5679 5678 5678 5677 5677 5676 5676 5676 5675 5675 5674 5674 5674 5673 5673 5673 5673 5673 5673 5673 5673 5673 5673 5673 5673 5673 5674 5674 5675 5675 5675 5676 5676 5676 5676 5676 5676 5676
5683 5683 5682 5682 5682 5683 5683 5684 5684 5684 5684 5685 5686 5686 5686 5687 5688 5689 5689 5689 5689 5689 5689 5689 5688 5688 5688 5688 5687 5686 5685 5685 5684 5683 5683 5683 5682 5682 5682 5681 5681 5680 5680 5679 5678 5677 5677 5677 5676 5676 5675 5675 5674 5674 5674 5673 5673 5672 5672 5672 5671 5671 5671 5671 5671 5671 5671 5671 5671 5671 5671 5671 5671 5672 5672 5673 5673 5674 5674 5674 5674 5675 5675 5675 5675 5675
5679 5679 5679 5679 5679 5679 5680 5680 5681 5681 5681 5681 5682 5683 5683 5683 5684 5685 5685 5685 5685 5686 5686 5686 5686 5685 5685 5685 5684 5683 5682 5681 5681 5681 5680 5680 5680 5680 5679 5678 5678 5677 5677 5676 5676 5675 5675 5674 5674 5673 5673 5672 5672 5671 5671 5671 5671 5670 5670 5670 5670 5669 5669 5669 5669 5670 5670 5670 5670 5670 5670 5670 5670 5671 5671 5671 5672 5672 5672 5673 5673 5673 5673 5674 5674 5674
5676 5676 5675 5675 5676 5676 5676 5677 5677 5677 5677 5678 5679 5679 5679 5680 5680 5681 5681 5681 5681 5682 5682 5682 5682 5682 5682 5681 5681 5681 5679 5678 5678 5678 5678 5677 5676 5676 5677 5676 5675 5674 5674 5674 5673 5672 5672 5671 5671 5671 5670 5670 5670 5669 5669 5669 5668 5668 5668 5667 5667 5667 5667 5667 5667 5667 5668 5668 5668 5668 5668 5668 5668 5669 5670 5670 5671 5671 5671 5671 5671 5672 5672 5672 5672 5673
5672 5672 5672 5672 5672 5673 5673 5674 5674 5674 5674 5675 5675 5675 5676 5676 5676 5677 5678 5678 5678 5678 5678 5679 5679 5679 5678 5678 5678 5677 5677 5676 5675 5675 5675 5675 5674 5674 5674 5673 5672 5671 5671 5671 5671 5670 5670 5669 5669 5668 5668 5667 5667 5667 5666 5666 5666 5666 5666 5665 5665 5665 5665 5665 5666 5666 5666 5666 5666 5666 5666 5666 5667 5668 5668 5669 5669 5669 5670 5670 5670 5671 5671 5671 5671 5671
5668 5668 5669 5669 5669 5669 5670 5670 5671 5671 5671 5671 5671 5672 5672 5672 5673 5674 5674 5674 5674 5675 5675 5675 5675 5676 5676 5675 5674 5674 5674 5673 5672 5672 5673 5672 5671 5671 5671 5670 5670 5669 5669 5668 5668 5667 5667 5666 5666 5666 5665 5665 5665 5664 5664 5664 5664 5663 5663 5663 5663 5663 5663 5663 5663 5664 5664 5664 5664 5664 5665 5665 5666 5666 5667 5667 5668 5668 5668 5669 5669 5669 5669 5670 5670 5670
5664 5665 5665 5665 5666 5666 5666 5667 5667 5667 5668 5668 5668 5668 5669 5669 5670 5670 5671 5671 5671 5671 5671 5672 5672 5672 5672 5672 5671 5671 5671 5671 5670 5670 5670 5670 5669 5668 5668 5667 5667 5666 5666 5666 5665 5665 5664 5664 5663 5663 5663 5662 5662 5662 5662 5661 5661 5661 5661 5661 5661 5661 5661 5661 5661 5662 5662 5662 5662 5662 5663 5663 5664 5665 5665 5666 5666 5666 5667 5667 5667 5668 5668 5668 5668 5669
5660 5661 5661 5661 5662 5662 5662 5663 5663 5664 5664 5664 5665 5665 5665 5666 5666 5667 5667 5667 5667 5667 5668 5668 5669 5669 5669 5669 5669 5668 5668 5668 5667 5667 5667 5667 5666 5665 5665 5665 5664 5663 5663 5663 5662 5662 5662 5661 5661 5661 5660 5660 5660 5659 5659 5659 5659 5659 5659 5659 5659 5659 5659 5659 5660 5660 5660 5660 5661 5661 5661 5662 5662 5663 5664 5664 5665 5665 5665 5666 5666 5666 5666 5667 5667 5667
5656 5656 5656 5657 5658 5658 5658 5658 5659 5660 5660 5660 5661 5661 5662 5662 5663 5663 5663 5663 5664 5664 5665 5665 5665 5666 5666 5666 5666 5665 5665 5665 5665 5664 5664 5664 5663 5662 5662 5662 5661 5661 5660 5660 5660 5660 5659 5659 5658 5658 5658 5657 5657 5657 5656 5656 5656 5656 5656 5656 5656 5656 5657 5657 5657 5658 5658 5658 5659 5659 5660 5660 5661 5661 5662 5662 5663 5663 5664 5664 5664 5665 5665 5665 5666 5666
5651 5651 5652 5653 5654 5654 5654 5654 5655 5656 5656 5657 5657 5658 5658 5659 5659 5659 5660 5660 5660 5661 5661 5661 5662 5662 5663 5663 5662 5662 5662 5662 5662 5661 5661 5661 5660 5659 5659 5659 5659 5658 5658 5657 5657 5657 5656 5656 5656 5655 5655 5655 5654 5654 5654 5654 5654 5654 5654 5654 5654 5655 5655 5655 5655 5656 5656 5656 5657 5657 5658 5658 5659 5660 5660 5661 5661 5662 5662 5662 5663 5663 5663 5664 5664 5665
5647 5647 5648 5649 5650 5650 5650 5651 5651 5651 5652 5653 5653 5654 5654 5655 5656 5656 5656 5656 5657 5657 5657 5658 5658 5659 5659 5660 5660 5659 5659 5659 5659 5659 5658 5657 5657 5656 5656 5656 5656 5655 5655 5655 5654 5654 5653 5653 5653 5653 5652 5652 5652 5651 5651 5651 5651 5651 5652 5652 5652 5652 5653 5653 5653 5654 5654 5654 5655 5655 5656 5656 5657 5658 5659 5659 5660 5660 5661 5661 5661 5661 5662 5662 5663 5663
5643 5643 5644 5645 5646 5646 5646 5647 5647 5647 5648 5649 5650 5650 5651 5651 5651 5652 5652 5652 5653 5653 5654 5654 5655 5656 5656 5656 5656 5656 5656 5656 5656 5656 5655 5655 5654 5654 5653 5653 5653 5652 5652 5652 5652 5651 5651 5650 5650 5650 5650 5649 5649 5649 5649 5649 5649 5649 5649 5650 5650 5650 5651 5651 5651 5651 5652 5652 5653 5653 5654 5655 5656 5656 5657 5657 5658 5658 5659 5659 5660 5660 5661 5661 5661 5662
5639 5639 5640 5641 5641 5642 5643 5643 5643 5644 5644 5645 5646 5646 5647 5647 5648 5648 5649 5649 5650 5650 5651 5651 5651 5652 5653 5653 5654 5653 5653 5653 5653 5653 5652 5652 5651 5651 5651 5651 5651 5650 5649 5649 5649 5649 5648 5647 5647 5647 5647 5647 5646 5646 5646 5646 5647 5647 5647 5647 5648 5648 5648 5649 5649 5650 5650 5651 5651 5651 5652 5653 5654 5654 5655 5656 5656 5657 5657 5658 5658 5659 5659 5659 5660 5660
5635 5635 5636 5637 5637 5638 5639 5639 5640 5640 5640 5641 5642 5642 5643 5644 5644 5645 5645 5646 5646 5647 5647 5647 5648 5648 5649 5650 5650 5650 5650 5650 5650 5650 5650 5649 5648 5647 5647 5648 5648 5647 5646 5646 5646 5646 5645 5645 5644 5644 5644 5644 5644 5644 5644 5644 5644 5645 5645 5645 5646 5646 5646 5647 5647 5648 5648 5649 5649 5650 5650 5651 5652 5652 5653 5654 5654 5655 5656 5656 5656 5657 5657 5658 5658 5659
5631 5631 5632 5633 5634 5634 5635 5636 5636 5636 5636 5637 5638 5639 5639 5640 5641 5641 5642 5642 5643 5643 5644 5644 5644 5645 5646 5646 5646 5646 5646 5646 5646 5646 5646 5646 5645 5645 5644 5645 5645 5644 5644 5643 5643 5643 5642 5642 5641 5641 5641 5641 5641 5641 5641 5642 5642 5642 5643 5643 5643 5644 5644 5645 5645 5646 5646 5646 5647 5648 5648 5649 5650 5651 5651 5652 5653 5653 5654 5654 5655 5656 5656 5656 5657 5657
5626 5627 5628 5629 5630 5631 5631 5631 5632 5632 5633 5633 5634 5635 5636 5636 5637 5637 5637 5638 5639 5640 5640 5640 5641 5641 5642 5642 5642 5643 5644 5644 5643 5643 5643 5643 5642 5641 5642 5642 5642 5641 5641 5641 5640 5640 5640 5640 5639 5639 5638 5638 5639 5639 5639 5639 5640 5640 5641 5641 5641 5642 5642 5643 5643 5644 5644 5645 5645 5646 5646 5647 5648 5649 5650 5650 5651 5651 5652 5653 5653 5654 5654 5655 5655 5656
5622 5623 5624 5625 5626 5626 5627 5628 5628 5629 5629 5630 5630 5631 5631 5633 5633 5634 5634 5635 5636 5637 5637 5637 5638 5638 5638 5639 5639 5640 5641 5641 5640 5640 5640 5640 5639 5639 5639 5639 5639 5638 5638 5638 5637 5636 5636 5637 5637 5636 5636 5636 5636 5636 5637 5637 5637 5638 5638 5639 5639 5640 5640 5641 5641 5641 5642 5642 5643 5644 5645 5646 5646 5647 5648 5649 5649 5650 5651 5651 5652 5652 5653 5653 5654 5654
5618 5619 5620 5621 5621 5622 5623 5624 5624 5625 5626 5626 5627 5627 5628 5629 5630 5630 5630 5631 5633 5633 5633 5634 5634 5635 5635 5636 5636 5636 5637 5637 5637 5637 5637 5636 5636 5636 5636 5636 5636 5635 5636 5635 5635 5634 5633 5634 5634 5634 5634 5633 5633 5634 5634 5635 5635 5636 5636 5636 5637 5637 5638 5638 5639 5639 5640 5641 5641 5642 5643 5644 5644 5645 5646 5647 5647 5648 5649 5649 5650 5651 5651 5651 5652 5652
5614 5615 5616 5616 5617 5618 5619 5620 5620 5621 5622 5622 5623 5624 5624 5625 5626 5626 5627 5628 5629 5630 5630 5630 5631 5631 5631 5632 5633 5633 5633 5633 5633 5634 5634 5634 5633 5633 5633 5633 5633 5632 5632 5632 5632 5631 5631 5631 5631 5631 5631 5631 5631 5631 5632 5632 5633 5633 5634 5634 5635 5635 5636 5636 5637 5637 5638 5638 5639 5640 5641 5642 5642 5643 5644 5645 5646 5646 5647 5648 5648 5649 5649 5650 5650 5651
5610 5611 5611 5612 5613 5614 5615 5616 5616 5617 5618 5619 5619 5620 5621 5621 5622 5623 5623 5624 5625 5626 5627 5627 5627 5628 5628 5629 5629 5629 5629 5630 5630 5630 5631 5631 5630 5630 5630 5631 5630 5629 5629 5629 5629 5629 5628 5628 5628 5629 5629 5629 5629 5629 5630 5630 5631 5631 5631 5632 5632 5633 5633 5634 5634 5635 5636 5636 5637 5638 5639 5640 5641 5641 5642 5643 5644 5645 5645 5646 5646 5647 5648 5648 5649 5649
5605 5606 5607 5608 5609 5610 5611 5612 5612 5613 5614 5615 5616 5616 5617 5618 5619 5619 5620 5621 5622 5623 5623 5624 5624 5624 5625 5626 5626 5626 5626 5626 5627 5627 5627 5628 5627 5627 5627 5627 5627 5627 5626 5626 5626 5626 5626 5626 5626 5626 5626 5626 5627 5627 5627 5628 5628 5629 5629 5629 5630 5630 5631 5631 5632 5632 5633 5634 5635 5636 5637 5638 5639 5640 5641 5641 5642 5643 5644 5644 5645 5646 5646 5646 5647 5647
5601 5602 5603 5604 5605 5606 5607 5608 5609 5610 5610 5611 5612 5613 5614 5614 5615 5616 5616 5617 5618 5619 5620 5620 5621 5621 5621 5622 5622 5623 5623 5624 5624 5624 5624 5624 5624 5624 5624 5624 5624 5624 5624 5623 5623 5623 5623 5623 5623 5624 5624 5624 5625 5625 5625 5626 5626 5626 5626 5627 5627 5628 5628 5629 5629 5630 5631 5632 5633 5634 5635 5636 5637 5638 5639 5639 5640 5641 5642 5642 5643 5644 5644 5645 5645 5646
5597 5598 5599 5600 5601 5602 5603 5604 5605 5606 5606 5607 5608 5609 5610 5611 5611 5612 5613 5614 5615 5616 5616 5616 5617 5618 5618 5619 5619 5620 5620 5620 5621 5621 5621 5621 5621 5621 5621 5621 5621 5621 5621 5620 5620 5620 5621 5621 5621 5621 5621 5622 5622 5623 5623 5623 5623 5624 5624 5625 5625 5626 5626 5626 5627 5628 5629 5630 5631 5631 5633 5634 5635 5636 5636 5637 5638 5639 5640 5641 5641 5642 5642 5643 5643 5644
5593 5594 5595 5596 5597 5598 5599 5600 5601 5602 5603 5604 5605 5606 5606 5607 5608 5609 5610 5611 5611 5612 5612 5613 5613 5614 5615 5616 5616 5616 5617 5617 5617 5618 5617 5617 5617 5618 5618 5618 5618 5618 5618 5617 5617 5618 5618 5618 5619 5619 5619 5620 5620 5621 5621 5621 5621 5621 5622 5622 5623 5623 5624 5624 5625 5626 5626 5627 5628 5630 5631 5632 5633 5634 5635 5636 5636 5637 5638 5639 5639 5640 5641 5641 5641 5642
5589 5590 5591 5592 5593 5594 5595 5596 5597 5598 5599 5600 5601 5602 5603 5604 5605 5605 5606 5607 5608 5608 5609 5610 5610 5611 5611 5612 5612 5613 5613 5614 5614 5614 5614 5614 5614 5615 5615 5615 5615 5615 5615 5615 5615 5615 5616 5616 5616 5617 5617 5617 5617 5618 5618 5619 5619 5619 5619 5620 5620 5621 5621 5622 5623 5623 5624 5626 5626 5628 5629 5630 5631 5632 5633 5634 5634 5635 5636 5636 5637 5638 5638 5639 5640 5640
5584 5585 5586 5588 5589 5591 5591 5592 5593 5595 5596 5597 5598 5598 5599 5600 5601 5602 5603 5604 5604 5605 5606 5606 5607 5607 5608 5609 5609 5610 5610 5610 5611 5611 5611 5611 5611 5611 5611 5611 5611 5611 5612 5612 5613 5613 5613 5613 5614 5614 5615 5615 5615 5616 5616 5616 5616 5617 5617 5617 5618 5618 5619 5620 5621 5621 5622 5624 5625 5626 5627 5628 5629 5630 5631 5631 5632 5633 5634 5635 5635 5636 5636 5637 5637 5638
5580 5581 5582 5584 5585 5586 5588 5589 5590 5591 5592 5593 5594 5595 5596 5597 5598 5598 5599 5600 5601 5601 5602 5603 5603 5604 5605 5606 5606 5606 5607 5607 5607 5607 5608 5608 5608 5608 5608 5609 5609 5609 5609 5610 5610 5611 5611 5611 5611 5612 5612 5612 5613 5614 5614 5614 5614 5615 5615 5615 5616 5616 5617 5618 5619 5620 5621 5622 5623 5624 5625 5626 5627 5628 5629 5630 5631 5631 5632 5632 5633 5634 5634 5635 5635 5636
5576 5577 5579 5580 5581 5583 5584 5585 5586 5587 5589 5590 5591 5591 5592 5593 5594 5595 5596 5597 5597 5598 5599 5600 5600 5601 5601 5602 5603 5603 5604 5604 5604 5604 5605 5605 5605 5605 5606 5606 5606 5606 5606 5607 5607 5608 5608 5609 5609 5610 5610 5610 5611 5611 5611 5612 5612 5612 5613 5613 5614 5614 5615 5616 5617 5618 5619 5620 5621 5622 5623 5624 5625 5626 5627 5628 5628 5629 5630 5631 5631 5631 5632 5633 5633 5634
5572 5574 5575 5576 5578 5579 5581 5581 5583 5584 5585 5586 5587 5588 5589 5590 5591 5592 5593 5593 5594 5595 5596 5596 5597 5598 5598 5599 5600 5600 5601 5601 5601 5601 5601 5602 5602 5602 5602 5603 5603 5603 5604 5604 5605 5606 5606 5606 5607 5607 5608 5608 5608 5609 5609 5610 5610 5610 5611 5611 5612 5612 5613 5614 5615 5616 5617 5618 5619 5620 5621 5622 5623 5624 5625 5626 5626 5627 5628 5628 5629 5630 5630 5631 5631 5631
5569 5570 5571 5573 5574 5576 5577 5578 5579 5581 5582 5583 5584 5585 5586 5587 5588 5589 5589 5590 5591 5591 5592 5593 5594 5595 5595 5596 5596 5597 5597 5597 5598 5598 5598 5599 5599 5599 5600 5600 5600 5601 5601 5602 5602 5603 5603 5604 5605 5605 5605 5606 5606 5606 5607 5607 5607 5608 5608 5609 5610 5611 5611 5612 5613 5614 5615 5616 5617 5619 5620 5621 5621 5622 5623 5624 5625 5625 5626 5626 5627 5627 5628 5628 5629 5629
5565 5566 5568 5569 5571 5572 5573 5575 5576 5577 5578 5580 5581 5581 5582 5583 5585 5586 5586 5587 5588 5588 5589 5590 5591 5591 5592 5593 5593 5593 5594 5594 5595 5595 5595 5596 5596 5596 5597 5597 5598 5598 5599 5599 5600 5601 5601 5601 5602 5602 5603 5603 5604 5604 5604 5605 5605 5606 5606 5607 5608 5609 5610 5611 5611 5612 5614 5615 5616 5617 5618 5619 5619 5620 5621 5622 5622 5623 5624 5624 5625 5626 5626 5626 5627 5627
5562 5563 5564 5566 5567 5568 5570 5571 5572 5574 5575 5576 5577 5578 5579 5580 5581 5582 5583 5583 5584 5585 5586 5586 5587 5588 5589 5589 5590 5591 5591 5591 5591 5592 5592 5593 5593 5594 5594 5595 5595 5596 5596 5597 5597 5598 5599 5599 5600 5600 5600 5601 5601 5602 5602 5603 5603 5604 5605 5605 5606 5607 5608 5609 5610 5611 5612 5613 5614 5615 5616 5616 5617 5618 5619 5620 5621 5621 5622 5622 5623 5623 5624 5624 5625 5625
5558 5559 5561 5562 5564 5565 5567 5568 5569 5570 5571 5573 5574 5575 5576 5577 5578 5579 5579 5580 5581 5582 5582 5583 5584 5585 5585 5586 5587 5587 5588 5588 5588 5589 5589 5590 5591 5591 5591 5592 5592 5593 5593 5594 5595 5596 5596 5597 5597 5597 5598 5598 5599 5600 5600 5601 5601 5602 5603 5603 5604 5605 5606 5607 5608 5609 5610 5611 5612 5613 5614 5615 5615 5616 5617 5618 5618 5619 5620 5620 5621 5621 5621 5622 5622 5623
5555 5556 5557 5559 5560 5562 5563 5564 5566 5567 5568 5569 5570 5571 5572 5573 5574 5575 5576 5577 5577 5578 5579 5580 5581 5581 5582 5582 5583 5584 5585 5585 5585 5586 5586 5587 5587 5588 5589 5589 5590 5590 5591 5591 5592 5593 5593 5594 5595 5595 5596 5596 5597 5597 5598 5598 5599 5600 5601 5601 5602 5603 5604 5605 5606 5607 5608 5609 5610 5611 5611 5612 5613 5614 5615 5616 5616 5617 5617 5618 5618 5619 5619 5620 5620 5621
5551 5552 5554 5555 5557 5558 5560 5561 5562 5563 5565 5566 5567 5568 5569 5570 5571 5572 5572 5573 5574 5575 5576 5577 5577 5578 5578 5579 5580 5581 5581 5582 5582 5583 5584 5584 5585 5585 5586 5586 5587 5587 5588 5589 5590 5590 5591 5591 5592 5592 5593 5594 5594 5595 5596 5596 5597 5598 5598 5599 5600 5601 5602 5603 5604 5605 5606 5607 5608 5609 5610 5610 5611 5612 5613 5614 5614 5615 5615 5616 5616 5616 5617 5617 5618 5618
5547 5549 5550 5552 5553 5555 5556 5557 5559 5560 5561 5562 5563 5565 5566 5567 5568 5568 5569 5570 5571 5571 5572 5573 5574 5575 5575 5576 5577 5577 5578 5578 5579 5580 5581 5581 5582 5582 5583 5584 5584 5585 5586 5586 5587 5587 5588 5589 5589 5590 5591 5591 5592 5592 5593 5594 5595 5595 5596 5597 5598 5599 5601 5601 5602 5603 5604 5605 5606 5606 5607 5608 5609 5610 5611 5611 5612 5613 5613 5613 5614 5614 5615 5615 5616 5616
5544 5545 5546 5548 5550 5551 5552 5554 5555 5556 5557 5558 5560 5561 5562 5563 5564 5565 5566 5566 5567 5568 5569 5570 5570 5571 5572 5572 5573 5574 5575 5576 5576 5577 5578 5578 5579 5580 5580 5581 5581 5582 5583 5583 5584 5585 5586 5586 5587 5587 5588 5589 5590 5590 5591 5591 5592 5593 5594 5595 5596 5597 5598 5599 5600 5601 5601 5602 5603 5604 5605 5606 5607 5608 5608 5609 5610 5611 5611 5611 5612 5612 5612 5613 5613 5614
5540 5541 5543 5545 5546 5547 5548 5550 5551 5552 5554 5555 5556 5558 5559 5560 5561 5561 5562 5563 5564 5565 5566 5566 5567 5568 5568 5569 5570 5571 5572 5572 5573 5574 5575 5576 5576 5577 5577 5578 5579 5580 5580 5581 5581 5582 5583 5584 5584 5585 5586 5586 5587 5588 5589 5589 5590 5591 5592 5593 5594 5595 5596 5597 5598 5599 5600 5601 5601 5602 5603 5604 5605 5605 5606 5607 5608 5608 5609 5609 5610 5610 5610 5611 5611 5611
5536 5538 5540 5541 5542 5544 5545 5546 5548 5549 5550 5551 5553 5554 5555 5556 5557 5558 5559 5560 5561 5561 5562 5563 5564 5564 5565 5566 5567 5568 5568 5569 5570 5571 5572 5572 5573 5574 5575 5575 5576 5577 5578 5578 5579 5580 5581 5581 5582 5582 5583 5584 5585 5586 5586 5587 5588 5589 5590 5591 5592 5593 5594 5595 5596 5596 5597 5598 5599 5600 5601 5601 5602 5603 5604 5605 5605 5606 5606 5607 5607 5607 5608 5608 5608 5609